sat.trackr.live / text

‹ back to catalog

ONEWEB-0028

NORAD 45140 · 2020-008K

PAYLOAD ACTIVE UNKNOWN

§ Identity

Operator
Country
UK
Launch date
2020-02-06
Launch site
TYMSC
Launch vehicle
Mass (kg)
RCS (m²)

Purposes: comms

External: N2YO · Heavens-Above · Gunter

§ Orbital elements

Epoch: 2026-09-13T00:38:41.231040Z

Period
109.80 min
Inclination
87.8963°
Eccentricity
0.0002327
Mean motion
13.11415761 rev/d
Perigee alt
1,215.9 km
Apogee alt
1,219.5 km
Semi-major
7,595.8 km
B*
-1.5849e-3
RAAN
3.6058°
Arg perigee
106.4534°
Mean anomaly
253.6850°
Rev number
32,013

§ Raw data

ONEWEB-00281 45140U 20008K   26256.02686610 -.00000549  00000+0 -15849-2 0  99922 45140  87.8963   3.6058 0002327 106.4534 253.6850 13.11415761320134

JSON: /api/v1/satellites/45140 · /tle

For live sub-satellite position, see the globe view (requires WebGL).

§ Visibility from observer

Set your observer location to see the next 7 days of passes ≥ 10°. The values pass through the URL so the page stays shareable.

No JS? Fill the form by hand. The geolocation button needs JavaScript.